This is the latest recevied weather packets stored in our database for station/object K4AVM-13. If no packets are shown the sender has not sent any weather packets the latest 10 day(s).
| Time | Temp. | Humidity | Pressure | Rain* | Wind** | Luminosity | Snow |
|---|---|---|---|---|---|---|---|
| 1777901501 | 17.78° C | 48% | 1017.2 hPa | 0 mm | - | 385 W/m² | - |
| 1777901198 | 17.22° C | 47% | 1017.3 hPa | 0 mm | - | 375 W/m² | - |
| 1777900896 | 17.22° C | 46% | 1017.3 hPa | 0 mm | - | 370 W/m² | - |
| 1777900593 | 17.22° C | 46% | 1017.4 hPa | 0 mm | - | 359 W/m² | - |
| 1777900290 | 16.67° C | 48% | 1017.4 hPa | 0 mm | - | 344 W/m² | - |
| 1777899986 | 16.67° C | 48% | 1017.4 hPa | 0 mm | - | 325 W/m² | - |
| 1777899683 | 16.11° C | 50% | 1017.3 hPa | 0 mm | - | 317 W/m² | - |
| 1777899381 | 16.11° C | 49% | 1017.5 hPa | 0 mm | - | 303 W/m² | - |
| 1777899079 | 16.11° C | 49% | 1017.6 hPa | 0 mm | - | 289 W/m² | - |
| 1777898775 | 15.56° C | 50% | 1017.5 hPa | 0 mm | - | 278 W/m² | - |
| 1777898473 | 15.56° C | 53% | 1017.5 hPa | 0 mm | - | 261 W/m² | - |
| 1777898171 | 15° C | 54% | 1017.3 hPa | 0 mm | - | 248 W/m² | - |
| 1777897868 | 15° C | 54% | 1017.5 hPa | 0 mm | - | 237 W/m² | - |
| 1777897564 | 15° C | 55% | 1017.5 hPa | 0 mm | - | 222 W/m² | - |
| 1777897259 | 13.89° C | 57% | 1017.8 hPa | 0 mm | - | 212 W/m² | - |
| 1777896955 | 13.89° C | 56% | 1017.8 hPa | 0 mm | - | 203 W/m² | - |
| 1777896652 | 12.78° C | 58% | 1017.7 hPa | 0 mm | - | 183 W/m² | - |
| 1777896349 | 12.22° C | 64% | 1017.8 hPa | 0 mm | - | 167 W/m² | - |
| 1777896048 | 11.11° C | 65% | 1017.8 hPa | 0 mm | - | 155 W/m² | - |
| 1777895745 | 11.11° C | 65% | 1018 hPa | 0 mm | - | 54 W/m² | - |
| 1777895442 | 11.11° C | 66% | 1017.8 hPa | 0 mm | - | 58 W/m² | - |
| 1777895139 | 10.56° C | 66% | 1017.7 hPa | 0 mm | - | 65 W/m² | - |
| 1777894832 | 10.56° C | 67% | 1017.8 hPa | 0 mm | - | 49 W/m² | - |
| 1777894528 | 10.56° C | 66% | 1017.8 hPa | 0 mm | - | 40 W/m² | - |
| 1777894226 | 10.56° C | 68% | 1017.7 hPa | 0 mm | - | 44 W/m² | - |
* Rain latest hour (hover to see other rain measurements)
** Current wind speed in m/s (hover to see current wind gust speed)